FW7479 Weather Reports


time (UTC)temp
C
wind
direction
speed
KPH
gust
KPH
rain 1hr
cm
rain 24hr
cm
rain mn
cm
humidity
%
barometer
mb
20260505140353 16 76 0.0 3.2 0.00 0.00 0.69 91 1005.2
20260505124850 16 317 0.0 0.0 0.00 0.00 0.69 90 1004.9
20260505124401 16 317 0.0 1.6 0.00 0.00 0.69 90 1004.7
20260505123906 16 317 0.0 1.6 0.00 0.00 0.69 90 1004.5
20260505123359 16 317 0.0 1.6 0.00 0.00 0.69 90 1004.5
20260505122846 16 317 0.0 3.2 0.00 0.00 0.69 90 1004.5
20260505122341 16 316 1.6 3.2 0.00 0.00 0.69 90 1004.5
20260505121835 16 316 1.6 3.2 0.00 0.00 0.69 90 1004.5
20260505121319 16 317 0.0 1.6 0.00 0.00 0.69 90 1004.4
20260505120833 16 316 1.6 1.6 0.00 0.00 0.69 89 1004.4
20260505120316 16 317 0.0 3.2 0.00 0.00 0.66 89 1004.1
20260505114910 16 267 0.0 1.6 0.00 0.00 0.66 89 1003.9
20260505113401 16 269 1.6 3.2 0.00 0.00 0.66 89 1003.5
20260505112409 16 269 0.0 3.2 0.00 0.00 0.66 89 1003.1
20260505111900 16 269 0.0 4.8 0.00 0.00 0.66 89 1003.1
20260505110344 16 169 3.2 4.8 0.00 0.00 0.66 89 1003.0
20260505101845 16 192 0.0 3.2 0.00 0.00 0.66 88 1003.8
20260505092358 16 179 1.6 4.8 0.00 0.00 0.58 87 1003.8
20260505091854 16 236 1.6 3.2 0.00 0.00 0.58 86 1004.7
20260505091340 16 228 0.0 3.2 0.00 0.00 0.56 86 1004.6
20260505090832 16 206 1.6 3.2 0.00 0.00 0.56 86 1004.4
20260505090320 16 206 0.0 1.6 0.00 0.00 0.53 86 1003.9
20260505084905 16 224 0.0 3.2 0.00 0.00 0.43 85 1004.6
20260505081408 16 244 1.6 6.4 0.00 0.00 0.15 82 1004.6
20260505080907 17 302 1.6 6.4 0.00 0.00 0.13 82 1004.3
20260505073812 17 273 0.0 1.6 0.00 0.00 0.00 76 1003.7
20260505073316 17 273 0.0 3.2 0.00 0.00 0.00 76 1003.8
20260505072816 17 266 0.0 3.2 0.00 0.00 0.00 75 1003.9
20260505071908 17 197 0.0 0.0 0.00 0.00 0.00 73 1003.6
20260505070901 17 197 0.0 0.0 0.00 0.00 0.00 73 1003.7
20260505070351 17 197 0.0 0.0 0.00 0.00 0.00 72 1003.7
20260505065818 17 197 0.0 0.0 0.00 0.00 0.00 73 1003.7
20260505065312 17 197 0.0 0.0 0.00 0.00 0.00 73 1003.5
20260505064827 17 197 0.0 0.0 0.00 0.00 0.00 73 1004.0
20260505064320 17 197 0.0 0.0 0.00 0.00 0.00 73 1004.0
20260505063815 17 197 0.0 0.0 0.00 0.00 0.00 73 1004.1
20260505063329 17 197 0.0 0.0 0.00 0.00 0.00 73 1004.0
20260505061816 17 197 0.0 0.0 0.00 0.00 0.00 72 1004.3
20260505061329 17 197 0.0 0.0 0.00 0.00 0.00 72 1004.5
20260505060824 17 198 0.0 0.0 0.00 0.00 0.00 73 1004.5
20260505060317 17 198 0.0 0.0 0.00 0.00 0.00 73 1004.5
20260505055812 17 198 0.0 0.0 0.00 0.00 0.00 73 1004.7
20260505055328 17 197 0.0 0.0 0.00 0.00 0.00 73 1004.6
20260505054825 17 197 0.0 0.0 0.00 0.00 0.00 73 1004.6
20260505054320 17 198 0.0 0.0 0.00 0.00 0.00 73 1004.4
20260505053816 17 198 0.0 0.0 0.00 0.00 0.00 72 1004.3
20260505053310 17 198 0.0 0.0 0.00 0.00 0.00 72 1004.2
20260505052827 17 198 0.0 0.0 0.00 0.00 0.00 72 1004.3
20260505052320 17 198 0.0 0.0 0.00 0.00 0.00 72 1004.3
20260505051815 17 198 0.0 0.0 0.00 0.00 0.00 72 1004.4
20260505051327 17 198 0.0 0.0 0.00 0.00 0.00 72 1004.4
20260505050821 17 197 0.0 0.0 0.00 0.00 0.00 71 1004.5
20260505050315 18 198 0.0 0.0 0.00 0.00 0.00 71 1004.7
20260505035345 19 198 0.0 3.2 0.00 0.00 0.00 65 1005.1
20260505034825 19 198 1.6 3.2 0.00 0.00 0.00 65 1005.2
20260505034319 20 199 0.0 0.0 0.00 0.00 0.00 64 1005.2
20260505033827 20 199 0.0 1.6 0.00 0.00 0.00 64 1005.3
20260505033321 20 198 0.0 3.2 0.00 0.00 0.00 64 1005.3
20260505032820 20 199 0.0 3.2 0.00 0.00 0.00 64 1005.4
20260505031400 20 205 0.0 1.6 0.00 0.00 0.00 63 1005.3
20260505030905 20 204 0.0 1.6 0.00 0.00 0.00 62 1005.4
20260505030358 20 205 0.0 3.2 0.00 0.00 0.00 62 1005.3
20260505025837 20 204 0.0 3.2 0.00 0.00 0.00 62 1005.3
20260505025322 20 205 1.6 3.2 0.00 0.00 0.00 61 1005.2
20260505023409 21 211 0.0 0.0 0.00 0.00 0.00 58 1005.1
20260505021903 21 211 0.0 0.0 0.00 0.00 0.00 58 1004.8
20260505021401 22 211 0.0 0.0 0.00 0.00 0.00 57 1004.6
20260505020858 22 211 0.0 0.0 0.00 0.00 0.00 57 1004.6
20260505020343 22 211 0.0 1.6 0.00 0.00 0.00 57 1004.5
20260505015831 22 211 0.0 3.2 0.00 0.00 0.00 56 1004.3
20260505015338 22 211 0.0 3.2 0.00 0.00 0.00 56 1004.3
20260505014411 22 212 0.0 3.2 0.00 0.00 0.00 55 1004.4
20260505013859 22 211 1.6 4.8 0.00 0.00 0.00 55 1004.2
20260505013400 23 178 0.0 4.8 0.00 0.00 0.00 54 1004.1
20260505010906 23 213 1.6 8.0 0.00 0.00 0.00 53 1003.7
20260505005903 23 184 1.6 6.4 0.00 0.00 0.00 52 1003.6
20260505004812 23 163 6.4 9.7 0.00 0.00 0.00 51 1003.6
20260505003408 24 178 3.2 6.4 0.00 0.00 0.00 50 1003.4
20260505002856 24 173 1.6 8.0 0.00 0.00 0.00 50 1003.4
20260505001316 25 192 4.8 8.0 0.00 0.00 0.00 49 1003.4
20260505000813 25 167 4.8 11.3 0.00 0.00 0.00 48 1003.3
20260504234907 25 153 11.3 19.3 0.00 0.00 0.00 46 1003.2
20260504233904 26 136 11.3 16.1 0.00 0.00 0.00 46 1003.1
20260504233358 26 194 8.0 14.5 0.00 0.00 0.00 46 1003.3
20260504232839 26 171 8.0 11.3 0.00 0.00 0.00 45 1003.3
20260504232344 26 161 4.8 14.5 0.00 0.00 0.00 45 1003.3
20260504231841 26 167 9.7 14.5 0.00 0.00 0.00 45 1003.3
20260504225909 27 198 6.4 19.3 0.00 0.00 0.00 42 1003.5
20260504224907 27 275 6.4 20.9 0.00 0.00 0.00 42 1003.4
20260504224351 27 161 8.0 17.7 0.00 0.00 0.00 41 1003.5
20260504223846 27 163 8.0 12.9 0.00 0.00 0.00 41 1003.5
20260504223350 27 250 8.0 12.9 0.00 0.00 0.00 39 1003.6
20260504222313 27 213 9.7 22.5 0.00 0.00 0.00 40 1003.4
20260504221411 27 194 9.7 14.5 0.00 0.00 0.00 39 1003.5
20260504220354 28 238 12.9 29.0 0.00 0.00 0.00 38 1003.6
20260504215319 28 203 11.3 20.9 0.00 0.00 0.00 39 1003.5
20260504213905 28 205 14.5 20.9 0.00 0.00 0.00 37 1003.5
20260504212319 28 179 11.3 24.1 0.00 0.00 0.00 38 1003.5
20260504210404 28 180 11.3 20.9 0.00 0.00 0.00 36 1003.9
20260504205406 28 236 8.0 19.3 0.00 0.00 0.00 38 1004.0
20260504204900 28 216 9.7 29.0 0.00 0.00 0.00 37 1004.0
20260504204353 28 184 8.0 29.0 0.00 0.00 0.00 39 1003.9
20260504203908 28 202 16.1 29.0 0.00 0.00 0.00 38 1004.0
20260504201904 29 223 12.9 29.0 0.00 0.00 0.00 38 1004.3
20260504201407 29 273 6.4 29.0 0.00 0.00 0.00 39 1004.2
20260504200859 29 215 11.3 22.5 0.00 0.00 0.00 37 1004.3
20260504200337 29 119 6.4 19.3 0.00 0.00 0.00 40 1004.2
20260504195831 28 184 9.7 24.1 0.00 0.00 0.00 39 1004.3
20260504195317 28 199 9.7 24.1 0.00 0.00 0.00 38 1004.4
20260504194826 28 223 12.9 29.0 0.00 0.00 0.00 38 1004.4
20260504194320 28 259 14.5 29.0 0.00 0.00 0.00 39 1004.4
20260504193816 28 227 11.3 20.9 0.00 0.00 0.00 41 1004.5
20260504192900 28 203 12.9 19.3 0.00 0.00 0.00 40 1004.8
20260504192402 28 174 11.3 27.4 0.00 0.00 0.00 41 1004.8
20260504191904 28 233 11.3 27.4 0.00 0.00 0.00 40 1004.9
20260504191400 28 196 11.3 19.3 0.00 0.00 0.00 41 1004.9
20260504185853 28 144 11.3 25.7 0.00 0.00 0.00 39 1004.9
20260504184404 28 161 8.0 16.1 0.00 0.00 0.00 40 1005.2
20260504180404 27 239 14.5 20.9 0.00 0.00 0.00 40 1005.5
20260504175908 27 125 6.4 16.1 0.00 0.00 0.00 42 1005.6
20260504175404 27 229 9.7 17.7 0.00 0.00 0.00 40 1005.5
20260504174907 27 203 8.0 19.3 0.00 0.00 0.00 41 1005.6
20260504174409 27 248 8.0 19.3 0.00 0.00 0.00 41 1005.6
20260504173348 27 242 8.0 27.4 0.00 0.00 0.00 40 1005.7
20260504172833 27 180 8.0 27.4 0.00 0.00 0.00 42 1005.8
20260504172353 27 146 11.3 27.4 0.00 0.00 0.00 41 1005.8
20260504171902 27 159 9.7 27.4 0.00 0.00 0.00 42 1005.8
20260504170358 27 218 11.3 19.3 0.00 0.00 0.00 42 1006.1
20260504160337 26 246 9.7 25.7 0.00 0.00 0.00 42 1006.7